Probability
0 0 0 0 0 0 0 0 0 0 0 0 0 0 0 0 0 0 0 0 0 0 0 0 0 0 0 0 0 0 0 0 0 0 0 0 0 0 0 0 0 0 0
0 0 0 0 0 0 0 0 0 0 0 0 0 0 0 0 0 0 0 0 0 0 0 0 0 0 0 0 0 0 0 0 0 0 0 0 0 0 0 0 0 0 0
0 0 0 0 0 0 0 0 0 0 0 0 0 0 0 0 0 0 0 0 0 0 0 0 0 0 0 0 0 0 0 0 0 0 0 0 0 0 0 0 0 0 0
0 0 0 0 0 0 0 0 0 0 0 0 0 0 0 0 0 0 0 0 0 0 0 0 0 0 0 0 0 0 0 0 0 0 0 0 0 0 0 0 0 0 0
0 0 0 0 0 0 0 0 0 0 0 0 0 0 0 0 0 0 0 0 0 0 0 0 0 0 0 0 0 0 0 0 0 0 0 0 0 0 0 0 0 0 0
0 0 0 0 0 0 0 0 0 0 0 0 0 0 0 0 0 0 0 0 0 0 0 0 0 0 0 0 0 0 0 0 0 0 0 0 0 0 0 0 0 0 0
0 0 0 0 0 0 0 0 0 0 0 0 0 0 0 0 0 0 0 0 0 0 0 0 0 0 0 0 0 0 0 0 0 0 0 0 0 0 0 0 0 0 0
0 0 0 0 0 0 0 0 0 0 0 0 0 0 0 0 0 0 0 0 0 0 0 0 0 0 0 0 0 0 0 0 0 0 0 0 0 0 0 0 0 0 0
0 0 0 0 0 0 0 0 0 0 0 0 0 0 0 0 0 0 0 0 0 0 0 0 0 0 0 0 0 0 0 0 0 0 0 0 0 0 0 0 0 0 0
0 0 0 0 0 0 0 0 0 0 0 0 0 0 0 0 0 0 0 0 0 0 0 0 0 0 0 0 0 0 0 0 0 0 0 0 0 0 0 0 0 0 0
0 0 0 0 0 0 0 0 0 0 0 0 0 0 0 0 0 0 0 0 0 0 0 0 0 0 0 0 0 0 0 0 0 0 0 0 0 0 0 0 0 0 0
0 0 0 0 0 0 0 0 0 0 0 0 0 0 0 0 0 0 0 0 0 0 0 0 0 0 0 0 0 0 0 0 0 0 0 0 0 0 0 0 0 0 0
0 0 0 0 0 0 0 0 0 0 0 0 0 0 0 0 0 0 0 0 0 0 0 0 0 0 0 0 0 0 0 0 0 0 0 0 0 0 0 0 0 0 0
0 0 0 0 0 0 0 0 0 0 0 0 0 0 0 0 0 0 0 0 0 0 0 0 0 0 0 0 0 0 0 0 0 0 0 0 0 0 0 0 0 0 0
0 0 0 0 0 0 0 0 0 0 0 0 0 0 0 0 0 0 0 0 0 0 0 0 0 0 0 0 0 0 0 0 0 0 0 0 0 0 0 0 0 0 0
0 0 0 0 0 0 0 0 0 0 0 0 0 0 0 0 0 0 0 0 0 0 0 0 0 0 0 0 0 0 0 0 0 0 0 0 0 0 0 0 0 0 0
0 0 0 0 0 0 0 0 0 0 0 0 0 0 0 0 0 0 0 0 0 0 0 0 0 0 0 0 0 0 0 0 0 0 0 0 0 0 0 0 0 0 0
0 0 0 0 0 0 0 0 0 0 0 0 0 0 0 0 0 0 0 0 0 0 0 0 0 0 0 0 0 0 0 0 0 0 0 0 0 0 0 0 0 0 0
0 0 0 0 0 0 0 0 0 0 0 0 0 0 0 0 0 0 0 0 0 0 0 0 0 0 0 0 0 0 0 0 0 0 0 0 0 0 0 0 0 0 0
0 0 0 0 0 0 0 0 0 0 0 0 0 0 0 0 0 0 0 0 0 0 0 0 0 0 0 0 0 0 0 0 0 0 0 0 0 0 0 0 0 0 0
0 0 0 0 0 0 0 0 0 0 0 0 0 0 0 0 0 0 0 0 0 0 0 0 0 0 0 0 0 0 0 0 0 0 0 0 0 0 0 0 0 0 0
0 0 0 0 0 0 0 0 0 0 0 0 0 0 0 0 0 0 0 0 0 0 0 0 0 0 0 0 0 0 0 0 0 0 0 0 0 0 0 0 0 0 0
0 0 0 0 0 0 0 0 0 0 0 0 0 0 0 0 0 0 0 0 0 0 0 0 0 0 0 0 0 0 0 0 0 0 0 0 0 0 0 0 0 0 0
0 0 0 0 0 0 0 0 0 0 0 0 0 0 0 0 0 0 0 0 0 0 0 0 0 0 0 0 0 0 0 0 0 0 0 0 0 0 0 0 0 0 0
0 0 0 0 0 0 0 0 0 0 0 0 0 0 0 0 0 0 0 0 0 0 0 0 0 0 0 0 0 0 0 0 0 0 0 0 0 0 0 0 0 0 0
0 0 0 0 0 0 0 0 0 0 0 0 0 0 0 0 0 0 0 0 0 0 0 0 0 0 0 0 0 0 0 0 0 0 0 0 0 0 0 0 0 0 0
Height
5655 5659 5662 5666 5669 5672 5675 5679 5681 5684 5687 5689 5691 5694 5696 5699 5701 5704 5707 5710 5713 5716 5719 5721 5723 5725 5727 5729 5731 5732 5734 5736 5737 5738 5739 5739 5740 5740 5740 5740 5740 5740 5740
5644 5647 5651 5654 5657 5660 5664 5667 5670 5673 5675 5678 5680 5683 5685 5688 5691 5693 5696 5699 5702 5705 5707 5710 5712 5714 5717 5719 5720 5722 5723 5725 5726 5727 5728 5728 5728 5729 5729 5729 5729 5728 5728
5632 5635 5639 5642 5645 5648 5651 5655 5658 5661 5664 5667 5669 5672 5675 5677 5680 5682 5685 5688 5691 5693 5696 5698 5701 5703 5705 5708 5709 5711 5712 5713 5714 5715 5716 5717 5717 5717 5718 5718 5717 5717 5716
5620 5624 5627 5630 5633 5637 5640 5643 5646 5649 5652 5655 5658 5661 5663 5666 5668 5671 5674 5677 5679 5682 5684 5687 5689 5691 5694 5696 5698 5699 5700 5701 5702 5703 5704 5705 5706 5706 5706 5706 5706 5705 5705
5608 5612 5615 5618 5621 5625 5628 5631 5634 5637 5640 5643 5646 5649 5652 5654 5657 5660 5663 5665 5668 5670 5672 5674 5676 5679 5681 5684 5686 5687 5689 5689 5690 5691 5692 5693 5693 5694 5694 5694 5693 5693 5692
5596 5600 5603 5606 5610 5613 5616 5619 5622 5625 5628 5631 5634 5637 5639 5642 5645 5647 5650 5653 5655 5658 5660 5662 5664 5667 5669 5671 5673 5675 5676 5677 5678 5678 5680 5680 5681 5681 5682 5681 5680 5680 5680
5584 5588 5591 5594 5598 5601 5605 5608 5611 5613 5616 5618 5621 5624 5627 5630 5632 5635 5637 5640 5643 5645 5647 5650 5652 5655 5656 5658 5660 5662 5664 5665 5666 5667 5667 5668 5669 5669 5669 5668 5667 5666 5665
5573 5576 5579 5582 5586 5589 5592 5596 5598 5601 5604 5606 5609 5611 5614 5617 5619 5622 5624 5627 5630 5632 5635 5637 5639 5641 5643 5645 5647 5649 5651 5652 5653 5654 5655 5655 5655 5655 5655 5654 5653 5652 5651
5561 5564 5567 5571 5574 5577 5581 5584 5586 5589 5591 5594 5597 5599 5602 5604 5607 5609 5611 5614 5616 5619 5622 5624 5626 5628 5630 5632 5634 5636 5638 5639 5639 5640 5641 5641 5641 5640 5640 5639 5639 5637 5636
5549 5552 5556 5559 5562 5566 5569 5572 5574 5577 5579 5582 5584 5587 5589 5592 5594 5596 5598 5601 5603 5606 5609 5611 5613 5615 5616 5618 5620 5622 5623 5625 5626 5626 5626 5626 5626 5626 5625 5625 5624 5622 5620
5537 5541 5544 5548 5551 5554 5558 5560 5563 5565 5568 5570 5573 5575 5577 5579 5582 5584 5586 5588 5590 5593 5595 5597 5600 5601 5603 5604 5606 5608 5610 5611 5611 5612 5612 5612 5611 5611 5610 5609 5608 5606 5605
5526 5529 5533 5536 5540 5543 5546 5549 5552 5554 5557 5559 5561 5563 5565 5567 5570 5571 5573 5575 5577 5580 5582 5584 5586 5588 5589 5591 5592 5594 5595 5596 5596 5597 5597 5597 5597 5596 5595 5594 5592 5591 5589
5515 5518 5521 5525 5528 5531 5535 5537 5540 5543 5546 5548 5550 5552 5554 5556 5558 5560 5561 5563 5564 5566 5569 5571 5573 5574 5576 5577 5578 5579 5580 5581 5582 5582 5583 5583 5582 5581 5580 5579 5577 5575 5573
5504 5508 5511 5514 5517 5520 5523 5526 5529 5532 5534 5537 5539 5541 5543 5545 5546 5548 5549 5551 5552 5553 5555 5557 5559 5560 5562 5563 5564 5565 5566 5567 5567 5568 5568 5568 5567 5566 5565 5563 5562 5561 5559
5495 5497 5500 5503 5506 5509 5512 5515 5518 5521 5523 5526 5528 5529 5531 5534 5535 5536 5537 5539 5540 5541 5542 5543 5545 5546 5548 5549 5551 5551 5552 5552 5553 5553 5553 5553 5552 5551 5550 5548 5547 5545 5544
5485 5488 5490 5493 5495 5498 5501 5504 5507 5510 5512 5514 5516 5518 5520 5522 5523 5524 5525 5526 5527 5528 5529 5530 5532 5533 5534 5536 5537 5537 5538 5538 5538 5538 5538 5538 5537 5536 5535 5534 5532 5531 5529
5475 5478 5480 5483 5486 5488 5491 5494 5497 5499 5501 5503 5505 5507 5509 5510 5511 5512 5513 5514 5515 5515 5516 5518 5519 5519 5520 5521 5522 5523 5523 5524 5524 5524 5524 5523 5523 5522 5521 5520 5518 5516 5514
5466 5468 5471 5474 5477 5479 5482 5484 5486 5489 5491 5493 5495 5496 5497 5499 5500 5501 5501 5501 5502 5503 5504 5505 5506 5506 5506 5507 5508 5509 5509 5510 5510 5510 5510 5510 5509 5508 5507 5506 5504 5502 5500
5457 5460 5462 5465 5467 5470 5472 5474 5476 5479 5481 5483 5484 5485 5486 5487 5488 5489 5489 5489 5490 5491 5491 5492 5493 5493 5493 5494 5494 5495 5495 5496 5497 5497 5497 5496 5496 5494 5493 5492 5490 5489 5486
5449 5451 5453 5456 5458 5460 5463 5465 5467 5469 5470 5472 5473 5474 5475 5475 5476 5477 5477 5477 5477 5478 5479 5479 5480 5480 5480 5481 5481 5481 5482 5483 5483 5484 5483 5483 5482 5481 5480 5479 5477 5475 5474
5440 5442 5444 5447 5449 5451 5453 5455 5456 5458 5460 5461 5462 5463 5463 5464 5464 5465 5465 5465 5466 5466 5467 5467 5467 5467 5468 5468 5468 5469 5469 5470 5470 5471 5470 5470 5469 5468 5467 5466 5464 5463 5461
5432 5434 5436 5438 5440 5441 5443 5445 5446 5447 5449 5450 5451 5452 5452 5452 5453 5454 5454 5454 5454 5455 5455 5455 5455 5456 5456 5456 5456 5456 5456 5457 5457 5457 5457 5457 5456 5455 5454 5453 5452 5450 5449
5425 5426 5428 5429 5430 5432 5433 5435 5436 5437 5439 5439 5440 5441 5441 5441 5442 5442 5443 5443 5443 5443 5443 5444 5444 5444 5444 5444 5444 5444 5445 5445 5445 5444 5444 5444 5443 5442 5442 5441 5440 5438 5437
5417 5418 5419 5420 5422 5423 5424 5425 5426 5427 5428 5429 5429 5430 5430 5430 5430 5431 5432 5432 5432 5432 5432 5432 5432 5433 5432 5432 5432 5432 5433 5433 5432 5432 5432 5431 5431 5430 5429 5429 5428 5427 5426
5408 5409 5411 5412 5413 5414 5415 5416 5417 5417 5418 5418 5419 5419 5419 5419 5420 5420 5420 5421 5421 5421 5421 5421 5421 5421 5421 5421 5421 5421 5421 5421 5420 5420 5420 5419 5419 5418 5418 5417 5416 5416 5415
5400 5401 5402 5403 5404 5405 5405 5406 5407 5407 5408 5408 5408 5409 5409 5409 5409 5409 5410 5410 5410 5411 5411 5411 5410 5410 5410 5410 5411 5410 5410 5410 5409 5409 5409 5408 5408 5407 5407 5406 5405 5404 5403
Wind_Speed
46 46 46 46 46 46 47 46 46 45 44 44 44 45 46 46 47 48 48 48 49 49 49 48 47 47 47 47 47 46 45 45 45 45 45 45 46 46 46 45 46 46 46
47 47 47 47 47 47 47 47 46 45 45 45 46 46 46 46 46 47 48 48 49 49 49 48 48 48 48 49 48 48 48 48 48 47 47 47 47 47 47 46 46 47 46
46 46 47 48 48 48 47 48 47 46 45 45 46 46 46 46 46 47 47 47 48 49 49 49 49 49 49 49 49 49 49 49 49 49 49 49 49 49 48 49 49 48 48
46 47 47 47 47 47 47 47 47 47 47 47 47 47 47 47 47 47 47 47 48 48 48 49 49 50 50 50 50 50 50 49 49 49 49 49 49 50 50 51 51 50 50
46 46 46 46 47 47 47 47 48 48 48 48 48 48 48 48 48 48 48 48 48 48 48 49 49 50 51 51 51 51 51 50 49 50 50 50 50 50 50 51 51 51 51
46 46 46 46 46 47 46 46 47 47 48 49 49 48 48 48 47 48 49 49 49 50 50 50 49 50 50 51 52 52 52 51 50 50 50 50 51 51 51 51 51 52 52
46 46 46 47 47 47 47 47 47 47 47 47 47 48 48 49 49 49 50 50 50 50 50 50 51 51 52 52 53 53 53 52 52 51 51 51 50 51 51 52 52 53 53
45 46 46 47 47 47 47 47 48 48 48 47 47 47 48 48 50 50 50 51 51 50 50 51 51 52 52 53 53 54 54 54 53 53 52 52 51 51 52 53 53 54 54
44 45 46 46 46 46 46 46 46 46 47 47 47 47 48 48 48 49 50 51 51 51 51 51 51 52 52 52 52 53 53 53 53 53 53 53 52 52 53 53 54 54 54
43 43 44 45 45 45 44 45 45 45 45 45 46 46 46 47 47 48 48 49 50 50 50 50 50 50 51 51 51 52 53 52 53 53 53 53 54 54 54 54 55 55 55
43 43 44 44 44 44 44 44 44 44 43 43 44 44 45 46 46 47 47 47 48 48 49 49 49 50 50 51 52 52 52 53 53 53 54 54 54 55 55 55 55 56 56
42 42 43 43 44 44 44 44 44 43 43 43 43 43 43 44 44 44 45 46 47 47 47 47 48 49 49 50 51 51 52 53 53 53 53 54 54 55 56 56 56 56 56
39 41 42 42 43 43 44 43 43 43 43 43 42 42 42 42 43 43 44 45 46 46 46 47 48 48 48 48 49 50 51 51 52 53 53 53 54 55 56 56 56 56 56
37 39 40 41 42 42 43 43 42 42 42 42 42 42 42 43 43 43 44 44 44 45 46 47 47 48 48 48 49 50 50 51 51 52 52 53 54 54 54 54 55 55 55
36 36 37 38 39 40 41 41 41 42 42 42 42 42 42 42 42 42 43 43 43 44 45 46 47 48 48 49 49 49 49 49 50 51 52 52 52 52 53 53 53 53 54
35 35 35 36 37 37 38 38 39 40 40 41 41 41 41 41 41 41 42 42 43 43 44 45 46 46 47 48 48 48 48 49 49 49 50 50 50 50 50 51 51 52 52
34 34 35 35 35 36 36 36 36 37 38 38 39 39 39 39 40 40 41 41 43 44 44 45 45 45 46 47 48 48 48 48 48 48 48 48 48 48 48 49 49 50 50
32 32 33 34 35 35 35 36 36 36 37 37 37 37 38 39 40 40 41 42 43 43 44 44 44 45 45 46 46 47 47 47 47 47 47 47 47 48 48 48 48 48 48
30 31 32 33 34 34 35 35 35 36 36 36 37 38 38 39 39 40 40 41 41 42 42 43 44 44 44 44 44 45 45 46 46 46 46 46 47 47 47 47 47 47 47
29 30 31 32 33 33 33 33 34 35 35 36 37 37 37 38 39 38 39 39 40 41 41 42 42 42 43 43 43 44 44 45 45 45 45 46 46 46 46 46 45 45 45
28 29 29 30 31 31 32 32 33 33 34 35 35 35 36 36 37 37 37 38 39 39 39 39 40 40 41 41 42 43 43 44 44 44 44 45 45 44 44 44 43 43 42
26 27 28 29 30 30 31 31 31 32 32 33 34 34 35 36 37 37 37 37 38 39 39 39 39 39 39 40 41 41 41 42 42 43 43 43 43 43 42 42 41 41 40
26 27 28 29 29 30 30 30 31 31 32 32 33 34 35 36 36 36 36 36 37 37 37 37 38 38 39 39 39 40 40 40 41 42 42 42 42 42 41 40 40 39 38
27 28 28 29 29 29 30 31 31 31 32 32 33 34 34 35 35 35 35 35 35 35 36 36 36 37 38 38 38 39 39 39 39 40 40 40 40 40 39 39 39 38 38
27 28 29 29 29 30 30 31 31 32 32 33 33 33 33 33 34 34 34 34 34 34 34 34 35 35 36 37 37 37 37 37 37 37 37 37 38 38 38 38 37 37 37
26 27 27 28 29 29 30 30 30 30 30 30 31 31 31 31 32 32 32 32 32 33 33 33 33 33 34 34 34 34 34 35 35 35 35 35 35 35 36 36 36 36 36
Wind_Direction
245 246 247 247 247 247 247 247 247 247 248 248 249 249 249 249 249 249 249 250 251 252 252 253 255 255 256 257 256 255 256 258 260 261 262 263 264 266 268 269 270 271 272
246 247 248 248 247 247 247 247 246 247 247 248 248 249 250 250 251 250 250 250 251 251 253 254 254 255 256 256 257 256 258 259 261 261 262 262 264 266 268 269 271 272 273
247 248 248 247 247 247 248 247 247 247 247 248 249 249 250 251 251 251 251 251 252 252 253 254 255 255 256 257 257 258 259 261 262 262 262 263 265 265 267 268 270 271 273
246 247 247 247 247 248 248 248 248 248 248 248 249 250 250 250 251 251 251 251 252 253 254 254 255 255 256 257 258 260 261 262 263 263 264 264 265 266 267 268 269 270 272
245 246 245 246 246 246 248 249 249 249 249 250 251 252 252 251 251 251 251 251 253 253 255 255 256 257 257 257 258 259 260 262 263 264 264 265 265 266 267 269 270 271 272
245 245 244 244 245 246 247 249 249 250 251 252 252 252 252 251 251 252 252 253 254 255 255 256 256 257 259 259 258 259 260 262 264 264 265 265 265 266 268 270 271 271 273
245 245 244 244 245 245 246 247 249 250 252 253 253 253 252 251 252 253 253 253 253 255 255 257 257 258 260 260 260 260 260 262 264 266 265 265 267 268 269 270 272 273 275
244 244 244 244 245 246 246 248 249 250 252 252 252 253 253 253 253 252 253 254 254 255 257 258 259 260 261 261 260 260 261 262 265 267 267 267 268 269 270 271 273 275 276
243 243 243 243 244 246 246 247 249 250 251 252 253 253 254 254 254 253 254 254 254 255 257 258 259 260 261 261 260 260 261 263 265 268 268 268 269 271 272 273 275 276 277
243 242 243 243 244 245 246 247 248 250 251 252 252 253 253 254 254 255 255 255 255 256 257 258 259 260 260 260 260 260 261 263 266 267 268 270 270 272 273 274 276 277 278
243 243 243 243 244 244 245 246 247 249 250 251 252 253 254 255 255 255 255 256 256 256 257 257 258 259 260 261 261 261 263 264 266 267 269 270 271 272 274 275 277 278 279
243 243 244 244 244 244 245 246 248 249 250 251 253 254 254 255 256 255 255 256 257 257 257 258 259 259 260 262 262 263 264 265 266 268 270 271 272 273 274 276 277 278 278
243 243 244 244 244 245 246 247 248 249 250 252 253 255 255 256 256 257 257 258 259 259 259 259 260 260 262 263 264 266 266 266 267 269 270 272 273 274 275 275 276 278 279
243 244 244 244 245 246 246 247 248 249 250 252 254 255 256 257 258 258 259 260 260 261 261 262 262 263 263 264 266 267 267 268 269 270 271 273 274 274 275 276 277 278 280
242 243 243 243 243 244 245 245 247 248 250 251 252 253 254 256 258 259 260 261 263 263 263 264 263 263 264 265 266 267 269 270 271 272 273 274 275 275 276 276 277 279 280
242 242 242 241 242 243 243 244 246 248 249 250 252 254 256 258 258 259 260 261 263 263 264 264 264 264 265 266 267 268 269 270 271 273 273 274 275 275 276 277 278 279 281
241 242 241 241 242 243 243 244 245 247 248 250 253 256 258 258 259 261 262 262 262 263 264 265 266 267 267 267 267 268 269 270 271 272 273 273 274 275 276 277 278 280 281
242 242 241 241 241 242 244 245 246 248 249 252 255 257 258 260 261 262 263 263 263 264 265 266 267 268 268 268 268 268 268 269 270 271 273 274 275 276 277 278 279 280 281
242 241 241 241 242 243 244 246 248 250 251 254 256 258 260 261 262 263 263 263 264 265 266 267 268 268 269 269 268 268 268 269 270 271 273 274 275 277 277 279 279 280 280
243 242 241 242 242 244 245 247 249 250 252 254 255 258 260 261 262 263 264 264 265 265 266 267 268 268 268 268 268 268 268 269 270 271 272 274 275 277 277 279 279 279 279
244 244 244 243 244 245 247 249 250 251 253 256 257 259 260 262 262 264 266 266 266 266 267 268 269 269 268 268 268 268 268 268 270 270 271 273 275 276 277 277 278 278 278
244 244 244 244 245 246 248 249 251 254 256 258 259 259 260 262 263 265 266 266 267 267 268 268 269 269 269 269 268 268 268 268 269 270 271 272 273 274 275 276 277 277 278
246 246 245 245 247 248 249 252 254 255 257 258 259 260 261 261 263 264 265 266 267 267 268 269 269 270 271 270 270 269 268 269 269 269 270 271 272 273 273 275 276 276 277
248 247 247 247 249 250 253 255 256 257 259 260 261 262 262 262 263 264 266 267 268 268 269 269 270 270 270 270 270 269 269 269 269 269 270 270 271 271 272 273 274 275 275
252 251 250 250 251 253 255 257 259 260 261 262 262 263 263 263 264 265 266 266 267 268 270 271 271 271 270 270 270 270 269 269 269 269 269 270 270 270 271 273 273 273 274
253 252 252 253 254 255 257 258 259 260 260 261 262 263 263 263 264 264 265 266 267 267 269 271 272 271 271 271 270 270 270 270 270 270 269 270 270 271 272 273 273 273 274